This is the latest recevied weather packets stored in our database for station/object SA6GOM-3. If no packets are shown the sender has not sent any weather packets the latest 10 day(s).
| Time | Temp. | Humidity | Pressure | Rain* | Wind** | Luminosity | Snow |
|---|---|---|---|---|---|---|---|
| 1777995346 | 11.11° C | 32% | 1012.4 hPa | - | - | - | - |
| 1777991746 | 13.33° C | 31% | 1012.3 hPa | - | - | - | - |
| 1777988146 | 14.44° C | 30% | 1012 hPa | - | - | - | - |
| 1777984545 | 15.56° C | 29% | 1012.2 hPa | - | - | - | - |
| 1777980945 | 16.11° C | 27% | 1012.1 hPa | - | - | - | - |
| 1777977345 | 16.11° C | 29% | 1012 hPa | - | - | - | - |
| 1777973745 | 16.67° C | 27% | 1012 hPa | - | - | - | - |
| 1777970145 | 25° C | 19% | 1011.4 hPa | - | - | - | - |
| 1777966545 | 20° C | 24% | 1011.6 hPa | - | - | - | - |
| 1777962945 | 22.22° C | 22% | 1011.5 hPa | - | - | - | - |
| 1777959345 | 23.33° C | 23% | 1011.3 hPa | - | - | - | - |
| 1777955745 | 21.11° C | 33% | 1010.8 hPa | - | - | - | - |
| 1777952145 | 4.44° C | 74% | 1010.6 hPa | - | - | - | - |
| 1777948544 | 5.56° C | 74% | 1010.3 hPa | - | - | - | - |
| 1777944944 | 7.22° C | 76% | 1009.9 hPa | - | - | - | - |
| 1777941344 | 8.89° C | 73% | 1010 hPa | - | - | - | - |
| 1777937744 | 8.89° C | 74% | 1009.9 hPa | - | - | - | - |
| 1777934144 | 8.33° C | 76% | 1009.8 hPa | - | - | - | - |
| 1777930544 | 8.33° C | 76% | 1009.8 hPa | - | - | - | - |
| 1777926944 | 9.44° C | 73% | 1009.9 hPa | - | - | - | - |
| 1777923344 | 9.44° C | 71% | 1009.9 hPa | - | - | - | - |
| 1777919744 | 10° C | 66% | 1009.8 hPa | - | - | - | - |
| 1777916144 | 10.56° C | 63% | 1009.6 hPa | - | - | - | - |
| 1777912544 | 11.67° C | 47% | 1009.6 hPa | - | - | - | - |
| 1777908944 | 13.33° C | 39% | 1009.8 hPa | - | - | - | - |
* Rain since midnight (hover to see other rain measurements)
** Current wind speed in m/s (hover to see current wind gust speed)